Погода в Усть-Омчуге

Россия / Магаданская область     61°08′01″N   149°38′05″E
темп.,
°C
ветер,
м/с
пор.,
м/с
влажн.,
%
обл.,
%
осадки,
мм/ч
давл.,
гПа
погр.,
м
8 марта, пн
пн823:00−34сз11980 0.0 100819
02:00−35с11962 0.0 100919
05:00−36сз119715 0.0 100919
08:00−37ссз11990 0.0 100919
11:00−30сз11850 0.0 100896
14:00−27ссз11760 0.0 1006269
17:00−27с11860 0.0 100619
20:00−34сз00990 0.0 100719
9 марта, вт
вт923:00−35з01990 0.0 100819
02:00−36зюз00980 0.0 100819
05:00−36з00960 0.0 100819
08:00−36зсз00910 0.0 100919
11:00−30зсз01750 0.0 100991
14:00−26з11660 0.0 1008233
17:00−25зсз11810 0.0 100819
20:00−31зюз11880 0.0 101119
10 марта, ср
ср1023:00−32зюз11850 0.0 101319
02:00−32юз11850 0.0 101419
05:00−33юз11880 0.0 101419
08:00−33зюз00880 0.0 101619
11:00−26зюз00780 0.0 101564
14:00−21зюз11700 0.0 1013204
17:00−21зсз00830 0.0 101320
20:00−26ю11890 0.0 101520
11 марта, чт
чт1123:00−27ю11870 0.0 101520
02:00−27ююз12750 0.0 101520
05:00−28ююз22670 0.0 101420
08:00−28ююз11730 0.0 101419
11:00−21юз117222 0.0 101292
14:00−17з126677 0.0 1010300
17:00−18зсз117845 0.0 100920
20:00−23зсз118693 0.0 101020
12 марта, пт
пт1223:00−24зсз118894 0.0 100920
02:00−24сз1190100 0.0 100820
05:00−24сз2291100 0.0 100720
08:00−25сз229799 0.1 100723
11:00−23ссз3393100 0.1 1006237
14:00−21ссз3489100 0.1 1004360
17:00−20сз2389100 0.1 1004374
20:00−24ссз2297100 0.0 100620